Tracking 29591 objects as of 19-Sep-2024
HD Live streaming from Space Station
objects crossing your sky now

THORAD AGENA D DEB

Track THORAD AGENA D DEB now!
10-day predictions


NORAD ID: 4993
Int'l Code: 1970-025HP
Perigee: 837.9 km
Apogee: 965.9 km
Inclination: 100.2 °
Period: 102.9 minutes
Semi major axis: 7272 km
RCS: 0.013 m2 (small)
Launch date: April 8, 1970
Source: United States (US)
Launch site: AIR FORCE WESTERN TEST RANGE (AFWTR)

Note: This is SATELLITE DEBRIS
Your satellite tracking list
Your tracking list is empty




NASA's NSSDC Master Catalog

Two Line Element Set (TLE):
1 04993U 70025HP  24257.44971406  .00004069  00000-0  27231-2 0  9990
2 04993 100.1828 321.8579 0087934 261.8856  97.2321 13.99721335749376
Source of the keplerian elements: AFSPC